Station Historical Data
Daily Summary for January 21, 2017 Units:  Metric    English   Both
« Previous Day
Next Day »
Daily Weekly Monthly Yearly Custom
  High: Low: Average:
Temperature: 4.1 °C 2.1 °C 2.8 °C
Dew Point: 3.6 °C 1.6 °C 2.3 °C
Humidity: 97 % 96 % 96 %
Wind Speed: 32.2 km/h 0 km/h 12.9 km/h
Wind Gust: 37 km/h - -
Wind:- - South
Pressure: 1015.5 hPa 1000.2 hPa -
Precipitation: 0 mm    
Historical Graphs
 
 
Tabular Data for January 21, 2017
Time Temperature Dew Point Pressure Wind Wind Speed Wind Gust Humidity Rainfall Rate (Hourly) solar
00:03 2.5 °C 1.9 °C 1000.2 hPa SSE 17.7 km/h 20.9 km/h 96 % 0 mm 0.00 W/m2
00:08 2.5 °C 1.9 °C 1000.2 hPa SSW 8 km/h 22.5 km/h 96 % 0 mm 0.00 W/m2
00:13 2.6 °C 2 °C 1000.2 hPa SW 4.8 km/h 16.1 km/h 96 % 0 mm 0.00 W/m2
00:19 2.6 °C 2 °C 1000.6 hPa SW 6.4 km/h 20.9 km/h 96 % 0 mm 0.00 W/m2
00:24 2.6 °C 2 °C 1000.6 hPa SSW 14.5 km/h 14.5 km/h 96 % 0 mm 0.00 W/m2
00:29 2.6 °C 2 °C 1000.6 hPa SSW 17.7 km/h 27.4 km/h 96 % 0 mm 0.00 W/m2
00:34 2.6 °C 2 °C 1000.6 hPa South 17.7 km/h 25.7 km/h 96 % 0 mm 0.00 W/m2
00:39 2.6 °C 2 °C 1000.9 hPa South 12.9 km/h 14.5 km/h 96 % 0 mm 0.00 W/m2
00:44 2.6 °C 2 °C 1000.9 hPa South 12.9 km/h 24.1 km/h 96 % 0 mm 0.00 W/m2
00:49 2.6 °C 2 °C 1000.9 hPa SSW 3.2 km/h 20.9 km/h 96 % 0 mm 0.00 W/m2
00:54 2.5 °C 1.9 °C 1000.9 hPa SW 11.3 km/h 14.5 km/h 96 % 0 mm 0.00 W/m2
00:59 2.6 °C 2 °C 1000.9 hPa Calm   17.7 km/h 96 % 0 mm 0.00 W/m2
01:04 2.5 °C 1.9 °C 1000.9 hPa SSW 4.8 km/h 16.1 km/h 96 % 0 mm 0.00 W/m2
01:09 2.5 °C 1.9 °C 1000.9 hPa South 11.3 km/h 14.5 km/h 96 % 0 mm 0.00 W/m2
01:14 2.5 °C 1.9 °C 1001.2 hPa SSW 8 km/h 27.4 km/h 96 % 0 mm 0.00 W/m2
01:19 2.5 °C 1.9 °C 1001.2 hPa Calm   16.1 km/h 96 % 0 mm 0.00 W/m2
01:24 2.4 °C 1.9 °C 1001.6 hPa South 9.7 km/h 19.3 km/h 96 % 0 mm 0.00 W/m2
01:29 2.5 °C 1.9 °C 1001.6 hPa South 8 km/h 19.3 km/h 96 % 0 mm 0.00 W/m2
01:34 2.4 °C 1.9 °C 1001.6 hPa SSW 12.9 km/h 22.5 km/h 96 % 0 mm 0.00 W/m2
01:39 2.5 °C 1.9 °C 1001.9 hPa SSW 11.3 km/h 16.1 km/h 96 % 0 mm 0.00 W/m2
01:44 2.5 °C 1.9 °C 1001.9 hPa SSW 8 km/h 19.3 km/h 96 % 0 mm 0.00 W/m2
01:49 2.5 °C 1.9 °C 1001.9 hPa SSW 11.3 km/h 17.7 km/h 96 % 0 mm 0.00 W/m2
01:54 2.5 °C 1.9 °C 1002.3 hPa Calm   19.3 km/h 96 % 0 mm 0.00 W/m2
01:59 2.5 °C 1.9 °C 1002.3 hPa South 4.8 km/h 19.3 km/h 96 % 0 mm 0.00 W/m2
02:04 2.4 °C 1.9 °C 1002.3 hPa South 16.1 km/h 16.1 km/h 96 % 0 mm 0.00 W/m2
02:09 2.4 °C 1.9 °C 1002.3 hPa South 4.8 km/h 17.7 km/h 96 % 0 mm 0.00 W/m2
02:14 2.4 °C 1.9 °C 1002.3 hPa SSW 8 km/h 17.7 km/h 96 % 0 mm 0.00 W/m2
02:19 2.4 °C 1.9 °C 1002.6 hPa SW 17.7 km/h 29 km/h 96 % 0 mm 0.00 W/m2
02:24 2.4 °C 1.9 °C 1002.6 hPa SSW 9.7 km/h 24.1 km/h 96 % 0 mm 0.00 W/m2
02:29 2.4 °C 1.9 °C 1002.6 hPa SSE 8 km/h 12.9 km/h 96 % 0 mm 0.00 W/m2
02:34 2.4 °C 1.9 °C 1002.6 hPa South 4.8 km/h 22.5 km/h 96 % 0 mm 0.00 W/m2
02:39 2.4 °C 1.9 °C 1002.6 hPa SSW 12.9 km/h 17.7 km/h 96 % 0 mm 0.00 W/m2
02:44 2.4 °C 1.9 °C 1002.9 hPa South 14.5 km/h 17.7 km/h 96 % 0 mm 0.00 W/m2
02:49 2.4 °C 1.9 °C 1002.9 hPa South 6.4 km/h 20.9 km/h 96 % 3.05 mm 0.00 W/m2
02:54 2.4 °C 1.8 °C 1002.6 hPa South 3.2 km/h 24.1 km/h 96 % 3.05 mm 0.00 W/m2
02:59 2.4 °C 1.8 °C 1002.6 hPa South 12.9 km/h 20.9 km/h 96 % 1.52 mm 0.00 W/m2
03:04 2.4 °C 1.8 °C 1002.6 hPa Calm   22.5 km/h 96 % 1.02 mm 0.00 W/m2
03:09 2.4 °C 1.8 °C 1002.6 hPa SSW 11.3 km/h 32.2 km/h 96 % 0 mm 0.00 W/m2
03:14 2.4 °C 1.8 °C 1002.6 hPa Calm   27.4 km/h 96 % 0 mm 0.00 W/m2
03:19 2.4 °C 1.8 °C 1002.6 hPa SSW 12.9 km/h 20.9 km/h 96 % 0 mm 0.00 W/m2
03:24 2.4 °C 1.9 °C 1002.9 hPa South 8 km/h 24.1 km/h 96 % 1.02 mm 0.00 W/m2
03:29 2.4 °C 1.9 °C 1002.9 hPa SSW 8 km/h 25.7 km/h 96 % 1.02 mm 0.00 W/m2
03:34 2.5 °C 1.9 °C 1002.9 hPa South 11.3 km/h 19.3 km/h 96 % 1.02 mm 0.00 W/m2
03:39 2.6 °C 2 °C 1002.9 hPa South 9.7 km/h 20.9 km/h 96 % 0 mm 0.00 W/m2
03:44 2.6 °C 2 °C 1002.9 hPa South 16.1 km/h 20.9 km/h 96 % 0 mm 0.00 W/m2
03:49 2.6 °C 2 °C 1002.9 hPa South 16.1 km/h 25.7 km/h 96 % 0 mm 0.00 W/m2
03:54 2.6 °C 2 °C 1002.9 hPa SSW 14.5 km/h 24.1 km/h 96 % 0 mm 0.00 W/m2
03:59 2.6 °C 2 °C 1002.9 hPa Calm   22.5 km/h 96 % 0 mm 0.00 W/m2
04:04 2.6 °C 2.1 °C 1002.9 hPa SSE 16.1 km/h 24.1 km/h 96 % 2.03 mm 0.00 W/m2
04:09 2.6 °C 2 °C 1003.3 hPa SSW 9.7 km/h 17.7 km/h 96 % 4.06 mm 0.00 W/m2
04:14 2.6 °C 2 °C 1003.3 hPa SSW 14.5 km/h 30.6 km/h 96 % 3.3 mm 0.00 W/m2
04:19 2.5 °C 1.9 °C 1003.6 hPa SSW 14.5 km/h 25.7 km/h 96 % 2.03 mm 0.00 W/m2
04:24 2.3 °C 1.8 °C 1003.6 hPa South 17.7 km/h 27.4 km/h 96 % 4.57 mm 0.00 W/m2
04:30 2.3 °C 1.7 °C 1003.6 hPa SSW 6.4 km/h 30.6 km/h 96 % 2.54 mm 0.00 W/m2
04:34 2.2 °C 1.7 °C 1003.6 hPa SSW 14.5 km/h 29 km/h 96 % 2.03 mm 0.00 W/m2
04:40 2.2 °C 1.7 °C 1003.9 hPa SSW 12.9 km/h 25.7 km/h 96 % 2.03 mm 0.00 W/m2
04:45 2.2 °C 1.6 °C 1003.9 hPa SW 17.7 km/h 29 km/h 96 % 3.05 mm 0.00 W/m2
04:50 2.2 °C 1.6 °C 1003.9 hPa SSE 8 km/h 27.4 km/h 96 % 2.03 mm 0.00 W/m2
04:55 2.1 °C 1.6 °C 1004.3 hPa SSE 19.3 km/h 20.9 km/h 96 % 2.03 mm 0.00 W/m2
05:00 2.1 °C 1.6 °C 1004.3 hPa South 4.8 km/h 24.1 km/h 96 % 1.27 mm 0.00 W/m2
05:05 2.2 °C 1.6 °C 1004.3 hPa SSE 1.6 km/h 24.1 km/h 96 % 1.02 mm 0.00 W/m2
05:10 2.2 °C 1.6 °C 1004.3 hPa Calm   20.9 km/h 96 % 0 mm 0.00 W/m2
05:15 2.2 °C 1.7 °C 1004.6 hPa SSE 12.9 km/h 27.4 km/h 96 % 0 mm 0.00 W/m2
05:20 2.3 °C 1.7 °C 1004.6 hPa SSE 11.3 km/h 29 km/h 96 % 2.03 mm 0.00 W/m2
05:25 2.3 °C 1.8 °C 1004.6 hPa SW 12.9 km/h 32.2 km/h 96 % 3.3 mm 0.00 W/m2
05:30 2.4 °C 1.9 °C 1004.6 hPa SW 17.7 km/h 27.4 km/h 96 % 1.78 mm 0.00 W/m2
05:35 2.5 °C 1.9 °C 1005 hPa SSW 22.5 km/h 25.7 km/h 96 % 1.02 mm 0.00 W/m2
05:40 2.6 °C 2 °C 1005.3 hPa Calm   20.9 km/h 96 % 0 mm 0.00 W/m2
05:45 2.6 °C 2 °C 1005.3 hPa South 11.3 km/h 20.9 km/h 96 % 0 mm 0.00 W/m2
05:50 2.6 °C 2.1 °C 1005.3 hPa South 16.1 km/h 24.1 km/h 96 % 0 mm 0.00 W/m2
05:55 2.7 °C 2.1 °C 1005.6 hPa South 25.7 km/h 30.6 km/h 96 % 0 mm 0.00 W/m2
06:00 2.7 °C 2.1 °C 1005.6 hPa SSW 20.9 km/h 29 km/h 96 % 0 mm 0.00 W/m2
06:05 2.7 °C 2.1 °C 1005.6 hPa SSW 6.4 km/h 29 km/h 96 % 0 mm 0.00 W/m2
06:10 2.7 °C 2.2 °C 1006 hPa South 6.4 km/h 30.6 km/h 96 % 0 mm 0.00 W/m2
06:15 2.7 °C 2.2 °C 1006 hPa South 20.9 km/h 25.7 km/h 96 % 0 mm 0.00 W/m2
06:20 2.7 °C 2.2 °C 1006.3 hPa South 16.1 km/h 24.1 km/h 96 % 0 mm 0.00 W/m2
06:25 2.7 °C 2.2 °C 1006.3 hPa SSW 12.9 km/h 30.6 km/h 96 % 0 mm 0.00 W/m2
06:30 2.8 °C 2.2 °C 1006.3 hPa SSE 12.9 km/h 20.9 km/h 96 % 0 mm 0.00 W/m2
06:35 2.8 °C 2.2 °C 1006.3 hPa South 12.9 km/h 27.4 km/h 96 % 0 mm 0.00 W/m2
06:40 2.8 °C 2.2 °C 1006.3 hPa SSW 19.3 km/h 30.6 km/h 96 % 0 mm 0.00 W/m2
06:45 2.8 °C 2.2 °C 1006.3 hPa South 30.6 km/h 30.6 km/h 96 % 0 mm 0.00 W/m2
06:50 2.8 °C 2.2 °C 1006.7 hPa SSW 24.1 km/h 32.2 km/h 96 % 0 mm 0.00 W/m2
06:55 2.8 °C 2.2 °C 1006.7 hPa SW 4.8 km/h 30.6 km/h 96 % 0 mm 0.00 W/m2
07:00 2.8 °C 2.2 °C 1007 hPa South 3.2 km/h 30.6 km/h 96 % 1.02 mm 0.00 W/m2
07:05 2.7 °C 2.2 °C 1007 hPa South 6.4 km/h 24.1 km/h 96 % 1.02 mm 0.00 W/m2
07:10 2.7 °C 2.1 °C 1007.3 hPa SSW 20.9 km/h 27.4 km/h 96 % 4.06 mm 0.00 W/m2
07:15 2.6 °C 2.1 °C 1007.3 hPa South 8 km/h 19.3 km/h 96 % 5.08 mm 0.00 W/m2
07:20 2.5 °C 1.9 °C 1007.3 hPa South 11.3 km/h 24.1 km/h 96 % 2.54 mm 0.00 W/m2
07:25 2.4 °C 1.9 °C 1007.7 hPa SSW 8 km/h 16.1 km/h 96 % 2.54 mm 0.00 W/m2
07:30 2.4 °C 1.8 °C 1008 hPa SW 14.5 km/h 24.1 km/h 96 % 1.27 mm 0.00 W/m2
07:35 2.4 °C 1.8 °C 1008 hPa South 14.5 km/h 20.9 km/h 96 % 1.02 mm 0.00 W/m2
07:40 2.4 °C 1.9 °C 1008 hPa SW 11.3 km/h 29 km/h 96 % 1.02 mm 0.00 W/m2
07:45 2.4 °C 1.9 °C 1008 hPa South 16.1 km/h 22.5 km/h 96 % 1.02 mm 7.00 W/m2
07:51 2.5 °C 1.9 °C 1008.4 hPa SSW 17.7 km/h 27.4 km/h 96 % 0 mm 7.00 W/m2
07:55 2.6 °C 2 °C 1008.4 hPa South 6.4 km/h 24.1 km/h 96 % 0 mm 7.00 W/m2
08:01 2.6 °C 2 °C 1008.4 hPa SSW 25.7 km/h 25.7 km/h 96 % 3.05 mm 12.00 W/m2
08:06 2.6 °C 2 °C 1008.4 hPa SSW 9.7 km/h 25.7 km/h 96 % 4.06 mm 12.00 W/m2
08:11 2.6 °C 2 °C 1008.7 hPa SSE 12.9 km/h 24.1 km/h 96 % 2.54 mm 18.00 W/m2
08:16 2.6 °C 2 °C 1008.7 hPa Calm   29 km/h 96 % 2.54 mm 12.00 W/m2
08:21 2.6 °C 2 °C 1009 hPa South 11.3 km/h 19.3 km/h 96 % 3.56 mm 16.00 W/m2
08:26 2.6 °C 2 °C 1009 hPa SW 17.7 km/h 20.9 km/h 96 % 3.3 mm 18.00 W/m2
08:31 2.6 °C 2 °C 1009.4 hPa SW 16.1 km/h 20.9 km/h 96 % 3.05 mm 16.00 W/m2
08:36 2.6 °C 2 °C 1009.4 hPa South 16.1 km/h 19.3 km/h 96 % 1.52 mm 12.00 W/m2
08:41 2.6 °C 2 °C 1009.4 hPa Calm   19.3 km/h 96 % 1.02 mm 14.00 W/m2
08:46 2.6 °C 2 °C 1009.7 hPa SSE 16.1 km/h 20.9 km/h 96 % 0 mm 23.00 W/m2
08:51 2.6 °C 2 °C 1009.7 hPa SSW 9.7 km/h 20.9 km/h 96 % 0 mm 21.00 W/m2
08:56 2.5 °C 1.9 °C 1010 hPa South 9.7 km/h 22.5 km/h 96 % 0 mm 16.00 W/m2
09:01 2.5 °C 1.9 °C 1010 hPa SSE 19.3 km/h 19.3 km/h 96 % 1.27 mm 21.00 W/m2
09:06 2.5 °C 1.9 °C 1010 hPa SSE 9.7 km/h 19.3 km/h 96 % 1.27 mm 23.00 W/m2
09:11 2.4 °C 1.9 °C 1010 hPa South 11.3 km/h 17.7 km/h 96 % 1.78 mm 25.00 W/m2
09:16 2.4 °C 1.9 °C 1010.4 hPa SSW 6.4 km/h 17.7 km/h 96 % 2.03 mm 26.00 W/m2
09:21 2.4 °C 1.8 °C 1010.4 hPa South 22.5 km/h 24.1 km/h 96 % 3.3 mm 42.00 W/m2
09:26 2.4 °C 1.9 °C 1010.7 hPa SSW 9.7 km/h 24.1 km/h 96 % 2.29 mm 39.00 W/m2
09:31 2.4 °C 1.8 °C 1010.7 hPa SSW 3.2 km/h 3.2 km/h 96 % 2.03 mm 33.00 W/m2
09:36 2.4 °C 1.9 °C 1011.1 hPa SSW 6.4 km/h 32.2 km/h 96 % 2.54 mm 37.00 W/m2
09:41 2.4 °C 1.9 °C 1011.1 hPa South 12.9 km/h 20.9 km/h 96 % 1.78 mm 44.00 W/m2
09:46 2.4 °C 1.9 °C 1011.4 hPa SSW 6.4 km/h 20.9 km/h 96 % 1.27 mm 63.00 W/m2
09:51 2.4 °C 1.9 °C 1011.4 hPa South 8 km/h 17.7 km/h 96 % 1.27 mm 60.00 W/m2
09:56 2.5 °C 1.9 °C 1011.7 hPa SSE 12.9 km/h 19.3 km/h 96 % 1.27 mm 39.00 W/m2
10:01 2.6 °C 2 °C 1011.7 hPa South 8 km/h 19.3 km/h 96 % 1.02 mm 33.00 W/m2
10:06 2.6 °C 2 °C 1011.7 hPa SSE 16.1 km/h 22.5 km/h 96 % 0 mm 33.00 W/m2
10:11 2.6 °C 2.1 °C 1011.7 hPa Calm   17.7 km/h 96 % 0 mm 30.00 W/m2
10:16 2.6 °C 2.1 °C 1011.7 hPa SSE 14.5 km/h 20.9 km/h 96 % 0 mm 40.00 W/m2
10:21 2.6 °C 2.1 °C 1011.7 hPa South 20.9 km/h 25.7 km/h 96 % 0 mm 60.00 W/m2
10:26 2.7 °C 2.1 °C 1011.7 hPa SSE 9.7 km/h 22.5 km/h 96 % 2.29 mm 37.00 W/m2
10:31 2.7 °C 2.1 °C 1012.1 hPa SE 19.3 km/h 24.1 km/h 96 % 1.78 mm 44.00 W/m2
10:36 2.7 °C 2.1 °C 1012.4 hPa SSE 9.7 km/h 24.1 km/h 96 % 1.02 mm 54.00 W/m2
10:41 2.7 °C 2.1 °C 1012.4 hPa South 14.5 km/h 22.5 km/h 96 % 0 mm 42.00 W/m2
10:46 2.7 °C 2.1 °C 1012.4 hPa SSE 14.5 km/h 17.7 km/h 96 % 0 mm 49.00 W/m2
10:51 2.7 °C 2.2 °C 1012.4 hPa South 8 km/h 27.4 km/h 96 % 0 mm 47.00 W/m2
10:56 2.7 °C 2.2 °C 1012.4 hPa South 12.9 km/h 20.9 km/h 96 % 0 mm 37.00 W/m2
11:01 2.8 °C 2.2 °C 1012.4 hPa SSE 14.5 km/h 19.3 km/h 96 % 0 mm 42.00 W/m2
11:06 2.8 °C 2.3 °C 1012.8 hPa SSW 14.5 km/h 16.1 km/h 96 % 0 mm 42.00 W/m2
11:11 2.8 °C 2.3 °C 1012.8 hPa South 14.5 km/h 22.5 km/h 96 % 0 mm 51.00 W/m2
11:16 2.9 °C 2.3 °C 1012.8 hPa South 19.3 km/h 22.5 km/h 96 % 0 mm 54.00 W/m2
11:21 2.9 °C 2.4 °C 1013.1 hPa South 20.9 km/h 29 km/h 96 % 0 mm 134.00 W/m2
11:26 3 °C 2.4 °C 1013.1 hPa South 14.5 km/h 16.1 km/h 96 % 0 mm 77.00 W/m2
11:31 3.1 °C 2.5 °C 1013.1 hPa SSW 16.1 km/h 20.9 km/h 96 % 0 mm 39.00 W/m2
11:36 3.1 °C 2.6 °C 1013.1 hPa SE 3.2 km/h 11.3 km/h 96 % 0 mm 60.00 W/m2
11:41 3.1 °C 2.7 °C 1013.1 hPa SSE 19.3 km/h 20.9 km/h 97 % 0 mm 40.00 W/m2
11:46 3.2 °C 2.7 °C 1013.1 hPa SE 12.9 km/h 14.5 km/h 97 % 0 mm 46.00 W/m2
11:51 3.2 °C 2.7 °C 1013.1 hPa South 16.1 km/h 25.7 km/h 97 % 0 mm 62.00 W/m2
11:56 3.2 °C 2.7 °C 1013.1 hPa South 16.1 km/h 16.1 km/h 97 % 0 mm 102.00 W/m2
12:01 3.2 °C 2.7 °C 1013.1 hPa South 22.5 km/h 25.7 km/h 97 % 0 mm 91.00 W/m2
12:06 3.2 °C 2.8 °C 1013.1 hPa SSE 11.3 km/h 14.5 km/h 97 % 0 mm 121.00 W/m2
12:11 3.3 °C 2.8 °C 1013.1 hPa SSW 27.4 km/h 27.4 km/h 97 % 0 mm 81.00 W/m2
12:16 3.3 °C 2.7 °C 1013.1 hPa SSW 20.9 km/h 20.9 km/h 96 % 0 mm 125.00 W/m2
12:21 3.3 °C 2.8 °C 1013.1 hPa South 19.3 km/h 20.9 km/h 96 % 0 mm 67.00 W/m2
12:26 3.3 °C 2.8 °C 1013.1 hPa South 9.7 km/h 24.1 km/h 96 % 0 mm 70.00 W/m2
12:31 3.3 °C 2.9 °C 1013.1 hPa South 11.3 km/h 12.9 km/h 97 % 0 mm 60.00 W/m2
12:36 3.3 °C 2.9 °C 1013.4 hPa SSW 16.1 km/h 16.1 km/h 97 % 0 mm 56.00 W/m2
12:41 3.3 °C 2.9 °C 1013.4 hPa Calm     97 % 0 mm 56.00 W/m2
12:46 3.3 °C 2.9 °C 1013.4 hPa SSE 11.3 km/h 19.3 km/h 97 % 0 mm 70.00 W/m2
12:51 3.3 °C 2.9 °C 1013.4 hPa SSE 11.3 km/h 17.7 km/h 97 % 0 mm 84.00 W/m2
12:56 3.4 °C 2.9 °C 1013.4 hPa SSE 22.5 km/h 24.1 km/h 97 % 0 mm 56.00 W/m2
13:01 3.4 °C 3 °C 1013.4 hPa South 8 km/h 17.7 km/h 97 % 0 mm 53.00 W/m2
13:06 3.4 °C 3 °C 1013.4 hPa SE 14.5 km/h 16.1 km/h 97 % 0 mm 35.00 W/m2
13:11 3.4 °C 3 °C 1013.4 hPa SSE 11.3 km/h 25.7 km/h 97 % 0 mm 37.00 W/m2
13:16 3.5 °C 3.1 °C 1013.4 hPa East 24.1 km/h 25.7 km/h 97 % 0 mm 54.00 W/m2
13:21 3.5 °C 3.1 °C 1013.8 hPa South 14.5 km/h 14.5 km/h 97 % 0 mm 53.00 W/m2
13:26 3.5 °C 3.1 °C 1013.8 hPa SSE 17.7 km/h 25.7 km/h 97 % 0 mm 74.00 W/m2
13:31 3.6 °C 3.1 °C 1013.8 hPa South 25.7 km/h 25.7 km/h 97 % 0 mm 58.00 W/m2
13:36 3.6 °C 3.1 °C 1013.8 hPa SSE 6.4 km/h 16.1 km/h 97 % 0 mm 69.00 W/m2
13:41 3.6 °C 3.1 °C 1013.8 hPa SSE 8 km/h 12.9 km/h 97 % 0 mm 69.00 W/m2
13:46 3.6 °C 3.1 °C 1013.8 hPa South 20.9 km/h 22.5 km/h 97 % 2.54 mm 62.00 W/m2
13:51 3.6 °C 3.1 °C 1014.1 hPa South 24.1 km/h 24.1 km/h 97 % 2.03 mm 123.00 W/m2
13:56 3.6 °C 3.1 °C 1014.1 hPa South 12.9 km/h 20.9 km/h 97 % 1.27 mm 171.00 W/m2
14:01 3.7 °C 3.2 °C 1014.1 hPa SSE 9.7 km/h 12.9 km/h 97 % 0 mm 255.00 W/m2
14:07 3.8 °C 3.3 °C 1014.1 hPa SSE 17.7 km/h 20.9 km/h 97 % 0 mm 165.00 W/m2
14:12 3.9 °C 3.4 °C 1014.1 hPa South 19.3 km/h 29 km/h 97 % 0 mm 139.00 W/m2
14:17 4 °C 3.6 °C 1014.1 hPa SSE 17.7 km/h 25.7 km/h 97 % 0 mm 102.00 W/m2
14:22 4.1 °C 3.6 °C 1014.1 hPa SSW 8 km/h 27.4 km/h 97 % 0 mm 116.00 W/m2
14:27 4 °C 3.6 °C 1014.1 hPa SSE 12.9 km/h 19.3 km/h 97 % 0 mm 63.00 W/m2
14:32 4 °C 3.6 °C 1014.1 hPa South 19.3 km/h 22.5 km/h 97 % 0 mm 104.00 W/m2
14:37 4 °C 3.6 °C 1014.1 hPa SSE 14.5 km/h 17.7 km/h 97 % 0 mm 58.00 W/m2
14:42 3.9 °C 3.5 °C 1014.1 hPa South 20.9 km/h 27.4 km/h 97 % 0 mm 47.00 W/m2
14:47 3.9 °C 3.4 °C 1014.1 hPa South 17.7 km/h 25.7 km/h 97 % 0 mm 53.00 W/m2
14:52 3.8 °C 3.3 °C 1014.4 hPa SSE 17.7 km/h 17.7 km/h 97 % 0 mm 65.00 W/m2
14:57 3.8 °C 3.3 °C 1014.4 hPa South 8 km/h 12.9 km/h 97 % 0 mm 65.00 W/m2
15:02 3.7 °C 3.3 °C 1014.4 hPa SSE 24.1 km/h 25.7 km/h 97 % 0 mm 35.00 W/m2
15:07 3.7 °C 3.2 °C 1014.8 hPa South 20.9 km/h 20.9 km/h 97 % 5.33 mm 39.00 W/m2
15:12 3.6 °C 3.2 °C 1014.8 hPa South 22.5 km/h 30.6 km/h 97 % 7.11 mm 33.00 W/m2
15:17 3.4 °C 3 °C 1014.8 hPa SSE 17.7 km/h 29 km/h 97 % 4.32 mm 30.00 W/m2
15:22 3.4 °C 2.9 °C 1014.4 hPa SSE 11.3 km/h 24.1 km/h 97 % 2.29 mm 39.00 W/m2
15:27 3.3 °C 2.9 °C 1014.4 hPa SSE 16.1 km/h 17.7 km/h 97 % 2.29 mm 47.00 W/m2
15:32 3.3 °C 2.9 °C 1014.4 hPa SSE 8 km/h 22.5 km/h 97 % 1.27 mm 53.00 W/m2
15:37 3.3 °C 2.8 °C 1014.8 hPa South 14.5 km/h 22.5 km/h 96 % 1.02 mm 42.00 W/m2
15:42 3.4 °C 2.8 °C 1014.8 hPa SSE 12.9 km/h 17.7 km/h 96 % 0 mm 42.00 W/m2
15:47 3.4 °C 2.9 °C 1014.8 hPa SE 19.3 km/h 19.3 km/h 96 % 0 mm 35.00 W/m2
15:52 3.4 °C 3 °C 1014.8 hPa SSE 6.4 km/h 17.7 km/h 97 % 0 mm 21.00 W/m2
15:57 3.5 °C 3.1 °C 1015.1 hPa SSE 9.7 km/h 16.1 km/h 97 % 0 mm 23.00 W/m2
16:02 3.5 °C 3.1 °C 1015.1 hPa SSE 14.5 km/h 16.1 km/h 97 % 0 mm 25.00 W/m2
16:07 3.6 °C 3.1 °C 1014.8 hPa SE 9.7 km/h 14.5 km/h 97 % 0 mm 23.00 W/m2
16:12 3.6 °C 3.2 °C 1014.8 hPa Calm   17.7 km/h 97 % 0 mm 12.00 W/m2
16:17 3.6 °C 3.2 °C 1014.8 hPa Calm   22.5 km/h 97 % 0 mm 14.00 W/m2
16:22 3.6 °C 3.2 °C 1014.8 hPa SE 6.4 km/h 12.9 km/h 97 % 0 mm 19.00 W/m2
16:27 3.6 °C 3.2 °C 1015.1 hPa SE 16.1 km/h 24.1 km/h 97 % 0 mm 16.00 W/m2
16:32 3.6 °C 3.2 °C 1015.1 hPa SSE 8 km/h 20.9 km/h 97 % 0 mm 16.00 W/m2
16:37 3.6 °C 3.2 °C 1015.1 hPa South 17.7 km/h 19.3 km/h 97 % 0 mm 14.00 W/m2
16:42 3.6 °C 3.1 °C 1015.1 hPa SE 17.7 km/h 24.1 km/h 97 % 0 mm 12.00 W/m2
16:47 3.6 °C 3.1 °C 1015.1 hPa SE 9.7 km/h 20.9 km/h 97 % 0 mm 9.00 W/m2
16:52 3.5 °C 3.1 °C 1014.8 hPa SE 8 km/h 19.3 km/h 97 % 0 mm 9.00 W/m2
16:57 3.4 °C 3 °C 1014.8 hPa SSE 16.1 km/h 16.1 km/h 97 % 0 mm 5.00 W/m2
17:02 3.4 °C 3 °C 1015.1 hPa SSE 3.2 km/h 20.9 km/h 97 % 0 mm 5.00 W/m2
17:07 3.4 °C 3 °C 1015.1 hPa SSE 9.7 km/h 22.5 km/h 97 % 0 mm 0.00 W/m2
17:13 3.4 °C 2.8 °C 1015.1 hPa SSE 11.3 km/h 19.3 km/h 96 % 0 mm 0.00 W/m2
17:18 3.3 °C 2.8 °C 1015.1 hPa SSE 11.3 km/h 20.9 km/h 96 % 0 mm 0.00 W/m2
17:23 3.3 °C 2.8 °C 1015.1 hPa SE 6.4 km/h 17.7 km/h 96 % 0 mm 0.00 W/m2
17:28 3.3 °C 2.7 °C 1015.1 hPa SSE 19.3 km/h 22.5 km/h 96 % 0 mm 0.00 W/m2
17:33 3.2 °C 2.8 °C 1015.1 hPa Calm   17.7 km/h 97 % 0 mm 0.00 W/m2
17:38 3.2 °C 2.8 °C 1014.8 hPa SE 12.9 km/h 32.2 km/h 97 % 0 mm 0.00 W/m2
17:43 3.2 °C 2.7 °C 1014.8 hPa SSE 9.7 km/h 20.9 km/h 97 % 0 mm 0.00 W/m2
17:48 3.2 °C 2.6 °C 1014.8 hPa South 6.4 km/h 22.5 km/h 96 % 0 mm 0.00 W/m2
17:53 3.1 °C 2.6 °C 1015.1 hPa SSE 12.9 km/h 27.4 km/h 96 % 0 mm 0.00 W/m2
17:58 3.1 °C 2.6 °C 1015.1 hPa SE 24.1 km/h 24.1 km/h 96 % 0 mm 0.00 W/m2
18:03 3.1 °C 2.5 °C 1015.1 hPa SE 11.3 km/h 17.7 km/h 96 % 0 mm 0.00 W/m2
18:08 3.1 °C 2.5 °C 1014.8 hPa SSE 12.9 km/h 24.1 km/h 96 % 0 mm 0.00 W/m2
18:13 3 °C 2.4 °C 1015.1 hPa SSE 16.1 km/h 22.5 km/h 96 % 0 mm 0.00 W/m2
18:18 3 °C 2.4 °C 1015.1 hPa SSE 8 km/h 25.7 km/h 96 % 0 mm 0.00 W/m2
18:23 3 °C 2.4 °C 1015.1 hPa SE 9.7 km/h 22.5 km/h 96 % 0 mm 0.00 W/m2
18:28 3 °C 2.4 °C 1015.1 hPa SSE 16.1 km/h 27.4 km/h 96 % 0 mm 0.00 W/m2
18:33 2.9 °C 2.4 °C 1015.1 hPa SSE 16.1 km/h 25.7 km/h 96 % 0 mm 0.00 W/m2
18:38 2.9 °C 2.4 °C 1014.8 hPa SE 19.3 km/h 19.3 km/h 96 % 0 mm 0.00 W/m2
18:43 2.9 °C 2.4 °C 1014.8 hPa SSE 11.3 km/h 22.5 km/h 96 % 0 mm 0.00 W/m2
18:48 2.9 °C 2.4 °C 1014.8 hPa SSE 6.4 km/h 25.7 km/h 96 % 0 mm 0.00 W/m2
18:53 2.9 °C 2.4 °C 1015.1 hPa SE 8 km/h 27.4 km/h 96 % 0 mm 0.00 W/m2
18:58 2.9 °C 2.4 °C 1015.1 hPa SE 14.5 km/h 24.1 km/h 96 % 0 mm 0.00 W/m2
19:03 2.9 °C 2.4 °C 1014.8 hPa SE 14.5 km/h 27.4 km/h 96 % 0 mm 0.00 W/m2
19:08 2.9 °C 2.4 °C 1014.8 hPa SE 9.7 km/h 24.1 km/h 96 % 0 mm 0.00 W/m2
19:13 2.9 °C 2.4 °C 1014.8 hPa SSE 12.9 km/h 24.1 km/h 96 % 0 mm 0.00 W/m2
19:18 2.9 °C 2.4 °C 1014.8 hPa SE 19.3 km/h 29 km/h 96 % 0 mm 0.00 W/m2
19:23 2.9 °C 2.4 °C 1014.4 hPa SE 11.3 km/h 24.1 km/h 96 % 0 mm 0.00 W/m2
19:28 2.9 °C 2.3 °C 1014.8 hPa SE 19.3 km/h 20.9 km/h 96 % 0 mm 0.00 W/m2
19:33 2.9 °C 2.3 °C 1014.8 hPa SE 19.3 km/h 19.3 km/h 96 % 0 mm 0.00 W/m2
19:38 2.9 °C 2.3 °C 1015.1 hPa SSE 11.3 km/h 24.1 km/h 96 % 0 mm 0.00 W/m2
19:43 2.9 °C 2.3 °C 1015.1 hPa SE 17.7 km/h 37 km/h 96 % 0 mm 0.00 W/m2
19:48 2.9 °C 2.4 °C 1015.1 hPa South 12.9 km/h 22.5 km/h 96 % 0 mm 0.00 W/m2
19:53 2.9 °C 2.4 °C 1015.1 hPa SSE 17.7 km/h 25.7 km/h 96 % 0 mm 0.00 W/m2
19:58 2.9 °C 2.4 °C 1015.5 hPa SSE 8 km/h 22.5 km/h 96 % 0 mm 0.00 W/m2
20:03 2.9 °C 2.4 °C 1015.5 hPa SSE 11.3 km/h 20.9 km/h 96 % 0 mm 0.00 W/m2
20:08 2.9 °C 2.4 °C 1015.5 hPa South 20.9 km/h 29 km/h 96 % 0 mm 0.00 W/m2
20:13 2.9 °C 2.4 °C 1015.5 hPa South 12.9 km/h 29 km/h 96 % 0 mm 0.00 W/m2
20:18 2.9 °C 2.4 °C 1015.5 hPa SSE 16.1 km/h 16.1 km/h 96 % 0 mm 0.00 W/m2
20:23 2.9 °C 2.4 °C 1015.5 hPa SE 8 km/h 37 km/h 96 % 0 mm 0.00 W/m2
20:28 2.9 °C 2.4 °C 1015.5 hPa SSE 20.9 km/h 24.1 km/h 96 % 0 mm 0.00 W/m2
20:33 2.9 °C 2.4 °C 1015.1 hPa SE 14.5 km/h 32.2 km/h 96 % 0 mm 0.00 W/m2
20:38 2.9 °C 2.4 °C 1015.1 hPa SSE 20.9 km/h 27.4 km/h 96 % 1.02 mm 0.00 W/m2
20:43 2.9 °C 2.4 °C 1015.1 hPa South 14.5 km/h 30.6 km/h 96 % 1.02 mm 0.00 W/m2
20:48 2.9 °C 2.4 °C 1014.8 hPa South 20.9 km/h 30.6 km/h 96 % 1.02 mm 0.00 W/m2
20:53 2.9 °C 2.3 °C 1014.8 hPa SE 22.5 km/h 29 km/h 96 % 0 mm 0.00 W/m2
20:58 2.9 °C 2.3 °C 1014.8 hPa ESE 19.3 km/h 24.1 km/h 96 % 0 mm 0.00 W/m2
21:03 2.9 °C 2.3 °C 1014.8 hPa SE 12.9 km/h 29 km/h 96 % 0 mm 0.00 W/m2
21:08 2.9 °C 2.3 °C 1014.8 hPa SSE 17.7 km/h 27.4 km/h 96 % 0 mm 0.00 W/m2
21:13 2.9 °C 2.3 °C 1014.8 hPa South 9.7 km/h 27.4 km/h 96 % 0 mm 0.00 W/m2
21:18 2.8 °C 2.3 °C 1014.8 hPa SE 16.1 km/h 32.2 km/h 96 % 0 mm 0.00 W/m2
21:23 2.8 °C 2.3 °C 1014.8 hPa SE 8 km/h 24.1 km/h 96 % 0 mm 0.00 W/m2
21:28 2.8 °C 2.3 °C 1014.8 hPa SE 11.3 km/h 35.4 km/h 96 % 0 mm 0.00 W/m2
21:34 2.8 °C 2.3 °C 1014.4 hPa SE 9.7 km/h 25.7 km/h 96 % 0 mm 0.00 W/m2
21:39 2.8 °C 2.2 °C 1014.4 hPa SE 11.3 km/h 24.1 km/h 96 % 0 mm 0.00 W/m2
21:44 2.8 °C 2.2 °C 1014.1 hPa ESE 22.5 km/h 27.4 km/h 96 % 0 mm 0.00 W/m2
21:49 2.8 °C 2.2 °C 1013.8 hPa SSE 25.7 km/h 25.7 km/h 96 % 0 mm 0.00 W/m2
21:54 2.7 °C 2.2 °C 1013.8 hPa SSE 16.1 km/h 29 km/h 96 % 0 mm 0.00 W/m2
21:59 2.7 °C 2.2 °C 1013.8 hPa SE 14.5 km/h 30.6 km/h 96 % 0 mm 0.00 W/m2
22:04 2.7 °C 2.2 °C 1013.4 hPa SE 14.5 km/h 29 km/h 96 % 1.02 mm 0.00 W/m2
22:09 2.7 °C 2.2 °C 1013.8 hPa SE 9.7 km/h 24.1 km/h 96 % 1.02 mm 0.00 W/m2
22:14 2.7 °C 2.2 °C 1013.8 hPa SE 6.4 km/h 20.9 km/h 96 % 1.02 mm 0.00 W/m2
22:19 2.7 °C 2.2 °C 1013.4 hPa SE 14.5 km/h 24.1 km/h 96 % 0 mm 0.00 W/m2
22:24 2.7 °C 2.1 °C 1013.4 hPa SE 11.3 km/h 32.2 km/h 96 % 0 mm 0.00 W/m2
22:29 2.7 °C 2.2 °C 1013.4 hPa SE 14.5 km/h 32.2 km/h 96 % 0 mm 0.00 W/m2
22:34 2.7 °C 2.2 °C 1013.4 hPa SSE 14.5 km/h 33.8 km/h 96 % 0 mm 0.00 W/m2
22:39 2.7 °C 2.2 °C 1013.1 hPa SE 20.9 km/h 24.1 km/h 96 % 0 mm 0.00 W/m2
22:44 2.7 °C 2.2 °C 1013.4 hPa SSE 3.2 km/h 32.2 km/h 96 % 0 mm 0.00 W/m2
22:49 2.7 °C 2.2 °C 1013.4 hPa SSE 19.3 km/h 24.1 km/h 96 % 0 mm 0.00 W/m2
22:54 2.7 °C 2.2 °C 1013.4 hPa South 11.3 km/h 33.8 km/h 96 % 0 mm 0.00 W/m2
22:59 2.7 °C 2.2 °C 1013.1 hPa Calm   27.4 km/h 96 % 0 mm 0.00 W/m2
23:04 2.7 °C 2.2 °C 1013.1 hPa SE 17.7 km/h 24.1 km/h 96 % 0 mm 0.00 W/m2
23:09 2.7 °C 2.2 °C 1013.1 hPa SE 12.9 km/h 20.9 km/h 96 % 0 mm 0.00 W/m2
23:14 2.7 °C 2.1 °C 1013.1 hPa SE 30.6 km/h 33.8 km/h 96 % 0 mm 0.00 W/m2
23:19 2.7 °C 2.1 °C 1013.1 hPa SSE 16.1 km/h 30.6 km/h 96 % 0 mm 0.00 W/m2
23:24 2.7 °C 2.1 °C 1013.1 hPa SSE 8 km/h 24.1 km/h 96 % 0 mm 0.00 W/m2
23:29 2.7 °C 2.1 °C 1013.1 hPa ESE 11.3 km/h 32.2 km/h 96 % 0 mm 0.00 W/m2
23:34 2.7 °C 2.1 °C 1013.1 hPa SE 22.5 km/h 32.2 km/h 96 % 1.78 mm 0.00 W/m2
23:39 2.6 °C 2.1 °C 1013.1 hPa South 32.2 km/h 35.4 km/h 96 % 2.54 mm 0.00 W/m2
23:44 2.6 °C 2 °C 1013.1 hPa SSE 11.3 km/h 32.2 km/h 96 % 2.54 mm 0.00 W/m2
23:49 2.5 °C 1.9 °C 1012.8 hPa South 17.7 km/h 22.5 km/h 96 % 2.54 mm 0.00 W/m2
23:54 2.4 °C 1.9 °C 1012.8 hPa SE 12.9 km/h 32.2 km/h 96 % 2.29 mm 0.00 W/m2
23:59 2.4 °C 1.8 °C 1012.4 hPa SE 20.9 km/h 35.4 km/h 96 % 3.3 mm 0.00 W/m2
Juneau County Weather
Compliments of Weather Underground - 4.5 mb
 WU-history PHP script courtesy of   Juneau County Weather.
powered by Cumulus v1.9.3 (1059)
Ambient Weather VWS v14.00
Top Contact Website Map Copyright © 2007 - 2018 Foresthillweather.com Never base important decisions on this or any weather information obtained from the Internet